Tracking 31027 objects as of 19-Jul-2025
HD Live streaming from Space Station
objects crossing your sky now

STARLINK-31075

Track STARLINK-31075 now!
10-day predictions
STARLINK-31075 is classified as:


NORAD ID: 58594
Int'l Code: 2023-200F
Perigee: 565.3 km
Apogee: 567.1 km
Inclination: 43.0 °
Period: 95.8 minutes
Semi major axis: 6937 km
RCS: Unknown
Launch date: December 19, 2023
Source: United States (US)
Launch site: AIR FORCE EASTERN TEST RANGE (AFETR)
Your satellite tracking list
STARLINK-30236
Track 1 satellite(s)




NASA's NSSDC Master Catalog

Two Line Element Set (TLE):
1 58594U 23200F   25199.43269237  .00000777  00000-0  72586-4 0  9993
2 58594  43.0047   3.3308 0001282 270.9991  89.0705 15.02534657 88359
Source of the keplerian elements: AFSPC